Flag for U.S.A. Weather past 2 weeks in Acworth, Georgia, U.S.A.

Now
47 °F

Light rain. Fog.


Feels Like: 47 °F
Forecast: 46 / 54 °F
Wind: No wind

Location: Cartersville Airport

Current Time: Mar 3, 2015 at 6:50:16 AM

Latest Report: Mar 3, 2015 at 5:53 AM


Visibility: 5 mi

Pressure: 30.20 "Hg

Humidity: 90%

Dew point: 44 °F

Location of AcworthLocation

Historic Weather in Acworth — Graph

°F

Acworth temperature yesterday

Maximum temperature yesterday: 58 °F (at 1:53 PM)
Minimum temperature yesterday: 46 °F (at 2:53 AM)
Average temperature yesterday: 50 °F

Past Weeks' High & Low Weather Summary

 TemperatureHumidityPressure
High58 °F (Mar 2, 1:53 PM)97% (Feb 22, 2:53 AM)30.60 "Hg (Feb 22, 2:53 AM)
Low12 °F (Feb 19, 6:53 AM)24% (Feb 20, 12:53 PM)29.73 "Hg (Feb 26, 12:53 AM)
Average35 °F69%30.20 "Hg
* Reported Feb 16 4:53 AM — Mar 3 4:53 AM, Acworth, Weather by CustomWeather, © 2015

Note: Actual official high and low records may vary slightly from our data, if they occured in-between our weather recording intervals... More about our weather records

Advertising

Acworth weather history for previous 24 hours

 ConditionsComfort  
Time TempWeatherWind HumidityBarometerVisibility
4:53 AM
Tue, Mar 3
48 °FLight rain. Overcast.No wind80%30.19 "Hg6 mi
3:53 AM49 °FOvercast.No wind74%30.19 "Hg10 mi
2:53 AM49 °FOvercast.No wind74%30.20 "Hg10 mi
1:53 AM49 °FOvercast.No wind71%30.21 "Hg10 mi
12:53 AM49 °FOvercast.3 mph71%30.21 "Hg10 mi
11:53 PM
Mon, Mar 2
49 °FOvercast.3 mph71%30.24 "Hg10 mi
10:53 PM49 °FOvercast.No wind71%30.26 "Hg10 mi
10:02 PM50 °FMostly cloudy.No wind68%30.29 "Hg10 mi
8:53 PM51 °FOvercast.6 mph69%30.28 "Hg10 mi
7:53 PM53 °FMostly cloudy.No wind72%30.27 "Hg10 mi
6:53 PM54 °FOvercast.No wind67%30.26 "Hg10 mi
5:53 PM56 °FScattered clouds.No wind62%30.25 "Hg10 mi
4:53 PM57 °FScattered clouds.7 mph60%30.25 "Hg10 mi
3:53 PM57 °FOvercast.10 mph60%30.25 "Hg10 mi
2:53 PM57 °FOvercast.6 mph60%30.27 "Hg10 mi
1:53 PM58 °FBroken clouds.9 mph60%30.29 "Hg10 mi
12:53 PM54 °FOvercast.3 mph72%30.32 "Hg10 mi
11:53 AM52 °FMostly cloudy.N/A77%30.34 "Hg10 mi
10:53 AM51 °FLow clouds.8 mph83%30.33 "Hg7 mi
9:53 AM50 °FFog.No wind86%30.35 "Hg4 mi
8:53 AM47 °FFog.No wind93%30.33 "Hg2 mi
7:53 AM46 °FFog.No wind93%30.32 "Hg1 mi
6:53 AM46 °FFog.No wind93%30.32 "Hg1 mi
Weather by CustomWeather, © 2015

See weather overviewHow to use our weather pages